Pipestone, MN

11:13 AM CST on February 26, 2017 (GMT -0600)
Pipestone Municipal

Weather History for KPQN - April, 2014

Change the Weather History Date:

Wednesday, April 23, 2014

  Actual Average Record
Temperature  
Mean Temperature 50 °F -  
Max Temperature 55 °F 58 °F 87 °F (2009)
Min Temperature 44 °F 37 °F 17 °F (2013)
Degree Days  
Heating Degree Days 16    
Moisture  
Dew Point 37 °F    
Average Humidity 63    
Maximum Humidity 76    
Minimum Humidity 47    
Precipitation  
Precipitation 0.04 in - - ()
Sea Level Pressure  
Sea Level Pressure 29.81 in    
Wind  
Wind Speed 17 mph (SSE)    
Max Wind Speed 30 mph    
Max Gust Speed 40 mph    
Visibility 10 miles    
Events Rain , Thunderstorm    
Averages and records for this station are not official NWS values.
T = Trace of Precipitation, MM = Missing Value Source: NWS Daily Summary

Daily Weather History Graph

Daily Weather History Graph

Search for Another Location

Airport or City:

Trip Planner

Search our weather history database for the weather conditions in past years. The results will help you decide how hot, cold, wet, or windy it might be!

Date:

Astronomy

Apr. 23, 2014 Rise Set
Actual Time 6:28 AM CDT 8:18 PM CDT
Civil Twilight 5:58 AM CDT 8:49 PM CDT
Nautical Twilight 5:20 AM CDT 9:27 PM CDT
Astronomical Twilight 4:39 AM CDT 10:08 PM CDT
Moon 3:14 AM CDT (4/23) 2:16 PM CDT (4/23)
Length of Visible Light 14h 51m
Length of Day
13h 50m
Waning Crescent, 34% of the Moon is Illuminated
Apr 23
Waning Crescent
Apr 29
New
May 6
First Quarter
May 14
Full
May 21
Last Quarter

Hourly Weather History & Observations

Time (CDT) Temp. Windchill Dew Point Humidity Pressure Visibility Wind Dir Wind Speed Gust Speed Precip Events Conditions
12:13 AM 55.4 °F - 35.6 °F 47% 29.95 in 10.0 mi SE 11.5 mph - N/A   Clear
12:33 AM 53.6 °F - 35.6 °F 51% 29.96 in 10.0 mi SE 8.1 mph - N/A   Scattered Clouds
12:53 AM 53.6 °F - 35.6 °F 51% 29.96 in 10.0 mi SSE 10.4 mph - N/A   Scattered Clouds
1:13 AM 53.6 °F - 35.6 °F 51% 29.96 in 10.0 mi SE 11.5 mph - N/A   Scattered Clouds
1:33 AM 51.8 °F - 35.6 °F 54% 29.96 in 10.0 mi SE 12.7 mph - N/A   Clear
1:53 AM 51.8 °F - 35.6 °F 54% 29.94 in 10.0 mi SE 15.0 mph 19.6 mph N/A   Scattered Clouds
2:13 AM 51.8 °F - 35.6 °F 54% 29.94 in 10.0 mi SE 16.1 mph - N/A   Clear
2:33 AM 51.8 °F - 33.8 °F 50% 29.94 in 10.0 mi SE 13.8 mph 20.7 mph N/A   Clear
2:53 AM 51.8 °F - 33.8 °F 50% 29.94 in 10.0 mi SSE 15.0 mph - N/A   Scattered Clouds
3:13 AM 51.8 °F - 33.8 °F 50% 29.92 in 10.0 mi SE 15.0 mph 20.7 mph N/A   Scattered Clouds
3:33 AM 51.8 °F - 33.8 °F 50% 29.92 in 10.0 mi SE 16.1 mph - N/A   Scattered Clouds
3:53 AM 51.8 °F - 33.8 °F 50% 29.92 in 10.0 mi SSE 16.1 mph 21.9 mph N/A   Mostly Cloudy
4:13 AM 50.0 °F - 33.8 °F 54% 29.94 in 10.0 mi SSE 10.4 mph - N/A   Overcast
4:33 AM 48.2 °F - 37.4 °F 66% 29.93 in 10.0 mi SE 15.0 mph - N/A Rain Light Rain
5:13 AM 48.2 °F - 35.6 °F 62% 29.94 in 10.0 mi SSE 12.7 mph 20.7 mph N/A   Overcast
5:33 AM 48.2 °F - 35.6 °F 62% 29.94 in 10.0 mi SSE 17.3 mph - N/A   Overcast
5:53 AM 48.2 °F - 37.4 °F 66% 29.93 in 10.0 mi SSE 15.0 mph 21.9 mph 0.01 in Rain Rain
6:14 AM 46.4 °F 39.0 °F 37.4 °F 71% 29.91 in 10.0 mi SSE 19.6 mph 24.2 mph N/A Rain Light Rain
6:33 AM 46.4 °F 38.7 °F 37.4 °F 71% 29.89 in 10.0 mi SSE 20.7 mph 28.8 mph 0.02 in Rain Light Rain
6:53 AM 46.4 °F 38.7 °F 37.4 °F 71% 29.89 in 10.0 mi SSE 20.7 mph 27.6 mph 0.01 in Rain Light Rain
7:14 AM 46.4 °F 38.5 °F 37.4 °F 71% 29.87 in 10.0 mi SE 21.9 mph 31.1 mph 0.01 in Rain , Thunderstorm Light Thunderstorms and Rain
7:33 AM 44.6 °F 35.9 °F 37.4 °F 76% 29.86 in 10.0 mi SE 23.0 mph 26.5 mph N/A Rain Light Rain
7:53 AM 44.6 °F 36.6 °F 37.4 °F 76% 29.88 in 10.0 mi SSE 19.6 mph 29.9 mph N/A   Light Drizzle
8:14 AM 44.6 °F 36.6 °F 37.4 °F 76% 29.88 in 10.0 mi SSE 19.6 mph 27.6 mph N/A Rain Light Rain
8:33 AM 44.6 °F 35.7 °F 37.4 °F 76% 29.87 in 10.0 mi SSE 24.2 mph 32.2 mph N/A   Light Drizzle
8:53 AM 46.4 °F 38.5 °F 37.4 °F 71% 29.86 in 10.0 mi SSE 21.9 mph 27.6 mph N/A   Overcast
9:13 AM 46.4 °F 38.1 °F 35.6 °F 66% 29.85 in 10.0 mi SSE 24.2 mph 33.4 mph N/A   Overcast
9:33 AM 46.4 °F 38.3 °F 35.6 °F 66% 29.85 in 10.0 mi SSE 23.0 mph 29.9 mph N/A   Overcast
9:53 AM 46.4 °F 38.7 °F 35.6 °F 66% 29.85 in 10.0 mi SSE 20.7 mph 27.6 mph N/A   Overcast
10:13 AM 46.4 °F 39.0 °F 35.6 °F 66% 29.85 in 10.0 mi SSE 19.6 mph 27.6 mph N/A   Overcast
10:33 AM 46.4 °F 39.0 °F 35.6 °F 66% 29.85 in 10.0 mi SSE 19.6 mph 24.2 mph N/A   Overcast
10:53 AM 46.4 °F 38.5 °F 33.8 °F 62% 29.84 in 10.0 mi SSE 21.9 mph 28.8 mph N/A   Overcast
11:13 AM 46.4 °F 38.5 °F 33.8 °F 62% 29.84 in 10.0 mi SSE 21.9 mph 28.8 mph N/A   Overcast
11:33 AM 46.4 °F 38.1 °F 33.8 °F 62% 29.82 in 10.0 mi SSE 24.2 mph - N/A   Overcast
11:53 AM 48.2 °F - 33.8 °F 58% 29.80 in 10.0 mi SE 25.3 mph 32.2 mph N/A   Overcast
12:13 PM 48.2 °F - 33.8 °F 58% 29.80 in 10.0 mi SE 23.0 mph 32.2 mph N/A   Overcast
12:33 PM 48.2 °F - 33.8 °F 58% 29.79 in 10.0 mi SE 21.9 mph 32.2 mph N/A   Overcast
12:53 PM 48.2 °F - 35.6 °F 62% 29.79 in 10.0 mi SSE 19.6 mph 27.6 mph N/A   Overcast
1:13 PM 48.2 °F - 35.6 °F 62% 29.78 in 10.0 mi SSE 21.9 mph 26.5 mph N/A   Overcast
1:33 PM 50.0 °F - 35.6 °F 58% 29.78 in 10.0 mi SSE 18.4 mph 32.2 mph N/A   Overcast
1:53 PM 50.0 °F - 35.6 °F 58% 29.77 in 10.0 mi SSE 24.2 mph 34.5 mph N/A   Overcast
2:13 PM 50.0 °F - 35.6 °F 58% 29.75 in 10.0 mi SSE 28.8 mph 38.0 mph N/A   Overcast
2:33 PM 50.0 °F - 37.4 °F 62% 29.74 in 10.0 mi SSE 25.3 mph 38.0 mph N/A   Overcast
2:53 PM 51.8 °F - 37.4 °F 58% 29.74 in 10.0 mi SSE 23.0 mph 31.1 mph N/A   Scattered Clouds
3:33 PM 53.6 °F - 39.2 °F 58% 29.72 in 10.0 mi SSE 29.9 mph 35.7 mph N/A   Mostly Cloudy
3:53 PM 53.6 °F - 39.2 °F 58% 29.72 in 10.0 mi SSE 27.6 mph 40.3 mph N/A   Scattered Clouds
4:13 PM 53.6 °F - 39.2 °F 58% 29.72 in 10.0 mi SSE 27.6 mph 34.5 mph N/A   Scattered Clouds
4:33 PM 53.6 °F - 39.2 °F 58% 29.71 in 10.0 mi SSE 28.8 mph 34.5 mph N/A   Scattered Clouds
4:53 PM 53.6 °F - 39.2 °F 58% 29.70 in 10.0 mi SSE 27.6 mph 35.7 mph N/A   Scattered Clouds
5:13 PM 51.8 °F - 39.2 °F 62% 29.69 in 10.0 mi SSE 23.0 mph 32.2 mph N/A   Scattered Clouds
5:33 PM 51.8 °F - 39.2 °F 62% 29.70 in 10.0 mi SSE 24.2 mph 33.4 mph N/A   Scattered Clouds
5:53 PM 53.6 °F - 39.2 °F 58% 29.70 in 10.0 mi SSE 25.3 mph 33.4 mph N/A   Clear
6:13 PM 53.6 °F - 39.2 °F 58% 29.69 in 10.0 mi SE 26.5 mph 32.2 mph N/A   Scattered Clouds
6:53 PM 51.8 °F - 39.2 °F 62% 29.69 in 10.0 mi SSE 24.2 mph 27.6 mph N/A   Scattered Clouds
7:13 PM 51.8 °F - 37.4 °F 58% 29.68 in 10.0 mi SSE 23.0 mph 33.4 mph N/A   Scattered Clouds
7:53 PM 48.2 °F - 37.4 °F 66% 29.71 in 10.0 mi SSE 20.7 mph 28.8 mph N/A   Overcast
8:13 PM 48.2 °F - 37.4 °F 66% 29.71 in 10.0 mi SSE 23.0 mph 28.8 mph N/A   Overcast
8:33 PM 48.2 °F - 37.4 °F 66% 29.71 in 10.0 mi SSE 19.6 mph 28.8 mph N/A   Overcast
8:53 PM 46.4 °F 38.7 °F 37.4 °F 71% 29.70 in 10.0 mi SE 20.7 mph 29.9 mph N/A   Overcast
9:13 PM 46.4 °F 39.5 °F 37.4 °F 71% 29.72 in 10.0 mi SSE 17.3 mph 27.6 mph N/A   Overcast
9:33 PM 46.4 °F 38.7 °F 37.4 °F 71% 29.72 in 10.0 mi SSE 20.7 mph 31.1 mph N/A   Overcast
9:53 PM 46.4 °F 39.8 °F 37.4 °F 71% 29.73 in 10.0 mi SSE 16.1 mph 27.6 mph N/A   Overcast
10:13 PM 44.6 °F 36.9 °F 37.4 °F 76% 29.72 in 10.0 mi SSE 18.4 mph 28.8 mph N/A   Mostly Cloudy
10:33 PM 44.6 °F 36.9 °F 37.4 °F 76% 29.71 in 10.0 mi SE 18.4 mph 25.3 mph N/A   Mostly Cloudy
10:53 PM 44.6 °F 37.2 °F 37.4 °F 76% 29.70 in 10.0 mi SE 17.3 mph - N/A   Scattered Clouds
11:13 PM 44.6 °F 37.2 °F 37.4 °F 76% 29.70 in 10.0 mi SSE 17.3 mph 27.6 mph N/A   Clear
11:33 PM 44.6 °F 37.2 °F 37.4 °F 76% 29.71 in 10.0 mi SE 17.3 mph - N/A   Scattered Clouds
11:53 PM 44.6 °F 37.4 °F 37.4 °F 76% 29.71 in 10.0 mi SE 16.1 mph - N/A   Overcast